ZSMUL FZEA-FZAA

Flight info

Callsign ZSMUL
Flight time 1h 22m
Altitude 14000
Route OVRI1A EMVOT V30 GUSAR GUSAR1A
Aircraft DC6/M-SDFGRWY/S

Departure

Time 2026-05-05 15:25
Airport Mbandaka Airport (FZEA)

Arrival

Time 2026-05-05 16:47
Airport Ndjili International Airport (FZAA)
Time Latitude Longitude Altitude Speed Heading
2026-05-05 15:03 0.02106 18.29031 1045 ft 0 kts 259°
2026-05-05 15:18 0.02106 18.29030 1045 ft 0 kts 267°
2026-05-05 15:18 0.02107 18.29027 1042 ft 1 kts 290°
2026-05-05 15:19 0.02115 18.29016 1042 ft 4 kts 309°
2026-05-05 15:19 0.02131 18.28982 1043 ft 7 kts 277°
2026-05-05 15:19 0.02126 18.28916 1042 ft 11 kts 276°
2026-05-05 15:19 0.02160 18.28886 1043 ft 8 kts 352°
2026-05-05 15:20 0.02237 18.28877 1045 ft 15 kts 353°
2026-05-05 15:20 0.02364 18.28862 1048 ft 21 kts 353°
2026-05-05 15:20 0.02501 18.28845 1050 ft 19 kts 354°
2026-05-05 15:20 0.02621 18.28833 1048 ft 16 kts 355°
2026-05-05 15:21 0.02728 18.28815 1049 ft 16 kts 349°
2026-05-05 15:21 0.02845 18.28799 1051 ft 19 kts 351°
2026-05-05 15:21 0.02982 18.28782 1051 ft 20 kts 356°
2026-05-05 15:21 0.03116 18.28777 1049 ft 18 kts 360°
2026-05-05 15:22 0.03201 18.28778 1050 ft 6 kts 354°
2026-05-05 15:22 0.03210 18.28776 1050 ft 0 kts 319°
2026-05-05 15:22 0.03212 18.28773 1050 ft 1 kts 290°
2026-05-05 15:22 0.03209 18.28765 1050 ft 2 kts 221°
2026-05-05 15:23 0.03191 18.28763 1050 ft 0 kts 173°
2026-05-05 15:23 0.03162 18.28767 1050 ft 16 kts 172°
2026-05-05 15:23 0.02893 18.28799 1051 ft 61 kts 173°
2026-05-05 15:23 0.02333 18.28865 1048 ft 99 kts 173°
2026-05-05 15:24 0.01555 18.28957 1097 ft 122 kts 173°
2026-05-05 15:24 0.00655 18.29068 1248 ft 137 kts 173°
2026-05-05 15:24 -0.00350 18.29201 1332 ft 155 kts 173°
2026-05-05 15:24 -0.01460 18.29333 1485 ft 166 kts 173°
2026-05-05 15:25 -0.02632 18.29486 1721 ft 174 kts 174°
2026-05-05 15:25 -0.03823 18.29620 1965 ft 172 kts 172°
2026-05-05 15:25 -0.05003 18.29765 2175 ft 174 kts 174°
2026-05-05 15:25 -0.06202 18.29909 2443 ft 174 kts 173°
2026-05-05 15:26 -0.07406 18.30046 2686 ft 174 kts 174°
2026-05-05 15:26 -0.08612 18.30180 2911 ft 175 kts 173°
2026-05-05 15:26 -0.09822 18.30319 3128 ft 176 kts 173°
2026-05-05 15:26 -0.11038 18.30464 3342 ft 177 kts 173°
2026-05-05 15:27 -0.12260 18.30498 3524 ft 178 kts 190°
2026-05-05 15:27 -0.13352 18.29922 3712 ft 181 kts 223°
2026-05-05 15:27 -0.14193 18.29026 3986 ft 178 kts 225°
2026-05-05 15:27 -0.15099 18.28179 4197 ft 179 kts 220°
2026-05-05 15:28 -0.16032 18.27350 4434 ft 180 kts 221°
2026-05-05 15:28 -0.16966 18.26510 4656 ft 182 kts 221°
2026-05-05 15:28 -0.17911 18.25664 4868 ft 183 kts 220°
2026-05-05 15:28 -0.18863 18.24815 5085 ft 184 kts 220°
2026-05-05 15:29 -0.19821 18.23959 5302 ft 185 kts 220°
2026-05-05 15:29 -0.20786 18.23098 5535 ft 187 kts 220°
2026-05-05 15:29 -0.21741 18.22241 5747 ft 188 kts 220°
2026-05-05 15:29 -0.22714 18.21371 5970 ft 188 kts 220°
2026-05-05 15:30 -0.23693 18.20499 6188 ft 189 kts 220°
2026-05-05 15:30 -0.24674 18.19623 6397 ft 189 kts 220°
2026-05-05 15:30 -0.25656 18.18744 6595 ft 190 kts 220°
2026-05-05 15:30 -0.26642 18.17864 6793 ft 190 kts 220°
2026-05-05 15:31 -0.27627 18.16982 6981 ft 191 kts 220°
2026-05-05 15:31 -0.28617 18.16100 7165 ft 191 kts 220°
2026-05-05 15:31 -0.29606 18.15215 7347 ft 191 kts 220°
2026-05-05 15:31 -0.30586 18.14340 7539 ft 191 kts 220°
2026-05-05 15:32 -0.31581 18.13449 7720 ft 193 kts 220°
2026-05-05 15:32 -0.32590 18.12550 7923 ft 195 kts 220°
2026-05-05 15:32 -0.33604 18.11642 8125 ft 197 kts 220°
2026-05-05 15:32 -0.34624 18.10727 8356 ft 198 kts 220°
2026-05-05 15:33 -0.35657 18.09808 8555 ft 199 kts 219°
2026-05-05 15:33 -0.36693 18.08883 8763 ft 200 kts 220°
2026-05-05 15:33 -0.37734 18.07952 8971 ft 202 kts 220°
2026-05-05 15:33 -0.38768 18.07028 9178 ft 203 kts 219°
2026-05-05 15:34 -0.39823 18.06086 9389 ft 204 kts 220°
2026-05-05 15:34 -0.40882 18.05139 9598 ft 205 kts 219°
2026-05-05 15:34 -0.41949 18.04187 9804 ft 206 kts 219°
2026-05-05 15:34 -0.43017 18.03231 10006 ft 206 kts 220°
2026-05-05 15:35 -0.44089 18.02273 10195 ft 207 kts 220°
2026-05-05 15:35 -0.45163 18.01313 10399 ft 207 kts 220°
2026-05-05 15:35 -0.46239 18.00352 10602 ft 208 kts 220°
2026-05-05 15:35 -0.47315 17.99390 10803 ft 207 kts 220°
2026-05-05 15:36 -0.48375 17.98443 10999 ft 207 kts 220°
2026-05-05 15:36 -0.49449 17.97483 11182 ft 207 kts 220°
2026-05-05 15:36 -0.50521 17.96525 11390 ft 206 kts 221°
2026-05-05 15:36 -0.51590 17.95569 11584 ft 207 kts 221°
2026-05-05 15:37 -0.52666 17.94610 11782 ft 208 kts 221°
2026-05-05 15:37 -0.53742 17.93645 11989 ft 208 kts 221°
2026-05-05 15:37 -0.54822 17.92682 12179 ft 208 kts 221°
2026-05-05 15:37 -0.55902 17.91717 12398 ft 209 kts 221°
2026-05-05 15:38 -0.56969 17.90764 12598 ft 209 kts 221°
2026-05-05 15:38 -0.58049 17.89796 12802 ft 208 kts 221°
2026-05-05 15:38 -0.59131 17.88832 13008 ft 208 kts 221°
2026-05-05 15:38 -0.60209 17.87866 13221 ft 208 kts 222°
2026-05-05 15:39 -0.61286 17.86904 13435 ft 208 kts 222°
2026-05-05 15:39 -0.62363 17.85943 13620 ft 207 kts 222°
2026-05-05 15:39 -0.63436 17.84984 13790 ft 207 kts 222°
2026-05-05 15:39 -0.64507 17.84027 13949 ft 206 kts 222°
2026-05-05 15:40 -0.65604 17.83106 14095 ft 206 kts 213°
2026-05-05 15:40 -0.66802 17.82368 14247 ft 205 kts 211°
2026-05-05 15:40 -0.68005 17.81605 14408 ft 205 kts 213°
2026-05-05 15:40 -0.69199 17.80832 14552 ft 204 kts 212°
2026-05-05 15:41 -0.70394 17.80066 14700 ft 204 kts 212°
2026-05-05 15:41 -0.71588 17.79300 14839 ft 204 kts 212°
2026-05-05 15:41 -0.72813 17.78515 14828 ft 213 kts 212°
2026-05-05 15:41 -0.74083 17.77699 14828 ft 220 kts 212°
2026-05-05 15:42 -0.75384 17.76867 14821 ft 223 kts 212°
2026-05-05 15:42 -0.76695 17.76024 14822 ft 225 kts 212°
2026-05-05 15:42 -0.78001 17.75187 14823 ft 227 kts 212°
2026-05-05 15:42 -0.79337 17.74332 14826 ft 229 kts 212°
2026-05-05 15:43 -0.80686 17.73467 14826 ft 231 kts 212°
2026-05-05 15:43 -0.82044 17.72595 14823 ft 233 kts 212°
2026-05-05 15:43 -0.83414 17.71717 14826 ft 234 kts 212°
2026-05-05 15:43 -0.84789 17.70835 14828 ft 236 kts 212°
2026-05-05 15:44 -0.86172 17.69949 14828 ft 237 kts 212°
2026-05-05 15:44 -0.87561 17.69059 14826 ft 238 kts 212°
2026-05-05 15:44 -0.88955 17.68165 14826 ft 239 kts 212°
2026-05-05 15:44 -0.90339 17.67277 14829 ft 240 kts 212°
2026-05-05 15:45 -0.91748 17.66374 14825 ft 241 kts 212°
2026-05-05 15:45 -0.93160 17.65468 14823 ft 242 kts 212°
2026-05-05 15:45 -0.94576 17.64561 14823 ft 242 kts 212°
2026-05-05 15:45 -0.95993 17.63651 14826 ft 242 kts 212°
2026-05-05 15:46 -0.97414 17.62741 14823 ft 243 kts 212°
2026-05-05 15:46 -0.98835 17.61829 14827 ft 243 kts 213°
2026-05-05 15:46 -1.00259 17.60916 14824 ft 243 kts 212°
2026-05-05 15:46 -1.01685 17.60003 14828 ft 243 kts 213°
2026-05-05 15:47 -1.03092 17.59099 14828 ft 244 kts 212°
2026-05-05 15:47 -1.04055 17.58482 14828 ft 244 kts 212°
2026-05-05 15:47 -1.05946 17.57269 14827 ft 244 kts 213°
2026-05-05 15:47 -1.07375 17.56354 14821 ft 244 kts 213°
2026-05-05 15:48 -1.08805 17.55436 14824 ft 244 kts 212°
2026-05-05 15:48 -1.10234 17.54520 14825 ft 244 kts 212°
2026-05-05 15:48 -1.11664 17.53602 14828 ft 244 kts 213°
2026-05-05 15:48 -1.13096 17.52685 14828 ft 245 kts 213°
2026-05-05 15:49 -1.14510 17.51778 14823 ft 245 kts 213°
2026-05-05 15:49 -1.15944 17.50859 14823 ft 245 kts 213°
2026-05-05 15:49 -1.17377 17.49939 14823 ft 245 kts 212°
2026-05-05 15:49 -1.18810 17.49020 14823 ft 245 kts 213°
2026-05-05 15:50 -1.20244 17.48100 14821 ft 245 kts 212°
2026-05-05 15:50 -1.21680 17.47180 14823 ft 245 kts 212°
2026-05-05 15:50 -1.23113 17.46260 14826 ft 245 kts 213°
2026-05-05 15:50 -1.24546 17.45342 14824 ft 245 kts 212°
2026-05-05 15:51 -1.25963 17.44433 14827 ft 245 kts 213°
2026-05-05 15:51 -1.27399 17.43512 14827 ft 245 kts 212°
2026-05-05 15:51 -1.28834 17.42591 14825 ft 245 kts 213°
2026-05-05 15:51 -1.30270 17.41670 14826 ft 245 kts 212°
2026-05-05 15:52 -1.31705 17.40750 14826 ft 245 kts 213°
2026-05-05 15:52 -1.33138 17.39830 14824 ft 245 kts 213°
2026-05-05 15:52 -1.34573 17.38911 14827 ft 245 kts 213°
2026-05-05 15:52 -1.36007 17.37990 14825 ft 245 kts 213°
2026-05-05 15:53 -1.37421 17.37084 14828 ft 245 kts 213°
2026-05-05 15:53 -1.38854 17.36164 14825 ft 245 kts 213°
2026-05-05 15:53 -1.40288 17.35245 14828 ft 245 kts 213°
2026-05-05 15:53 -1.41720 17.34326 14828 ft 245 kts 213°
2026-05-05 15:54 -1.43151 17.33408 14829 ft 245 kts 213°
2026-05-05 15:54 -1.44583 17.32489 14830 ft 245 kts 213°
2026-05-05 15:54 -1.46015 17.31571 14829 ft 245 kts 213°
2026-05-05 15:54 -1.47446 17.30653 14828 ft 245 kts 213°
2026-05-05 15:55 -1.48879 17.29734 14829 ft 244 kts 213°
2026-05-05 15:55 -1.50310 17.28816 14827 ft 244 kts 213°
2026-05-05 15:55 -1.51721 17.27911 14827 ft 244 kts 213°
2026-05-05 15:55 -1.53152 17.26992 14828 ft 244 kts 213°
2026-05-05 15:56 -1.54582 17.26074 14830 ft 244 kts 213°
2026-05-05 15:56 -1.56014 17.25158 14830 ft 244 kts 213°
2026-05-05 15:56 -1.57444 17.24238 14830 ft 244 kts 213°
2026-05-05 15:56 -1.58876 17.23320 14831 ft 245 kts 213°
2026-05-05 15:57 -1.60308 17.22401 14835 ft 245 kts 213°
2026-05-05 15:57 -1.61739 17.21484 14831 ft 244 kts 213°
2026-05-05 15:57 -1.63152 17.20576 14833 ft 244 kts 213°
2026-05-05 15:57 -1.64583 17.19658 14835 ft 245 kts 213°
2026-05-05 15:58 -1.66014 17.18740 14833 ft 245 kts 213°
2026-05-05 15:58 -1.67445 17.17822 14834 ft 244 kts 213°
2026-05-05 15:58 -1.68876 17.16903 14835 ft 244 kts 213°
2026-05-05 15:58 -1.70309 17.15985 14834 ft 244 kts 213°
2026-05-05 15:59 -1.71739 17.15067 14833 ft 244 kts 213°
2026-05-05 15:59 -1.73169 17.14150 14832 ft 244 kts 213°
2026-05-05 15:59 -1.74599 17.13232 14833 ft 244 kts 213°
2026-05-05 15:59 -1.76009 17.12327 14833 ft 244 kts 213°
2026-05-05 16:00 -1.77438 17.11410 14833 ft 244 kts 213°
2026-05-05 16:00 -1.78868 17.10492 14827 ft 244 kts 213°
2026-05-05 16:00 -1.80298 17.09574 14826 ft 244 kts 213°
2026-05-05 16:00 -1.81727 17.08657 14827 ft 244 kts 213°
2026-05-05 16:01 -1.83155 17.07740 14829 ft 244 kts 213°
2026-05-05 16:01 -1.84585 17.06824 14826 ft 244 kts 213°
2026-05-05 16:01 -1.85995 17.05918 14829 ft 244 kts 213°
2026-05-05 16:01 -1.87423 17.05001 14828 ft 244 kts 213°
2026-05-05 16:02 -1.88852 17.04085 14830 ft 244 kts 213°
2026-05-05 16:02 -1.90281 17.03167 14832 ft 244 kts 213°
2026-05-05 16:02 -1.91709 17.02251 14831 ft 244 kts 213°
2026-05-05 16:02 -1.93137 17.01335 14833 ft 244 kts 213°
2026-05-05 16:03 -1.94564 17.00418 14831 ft 244 kts 213°
2026-05-05 16:03 -1.95993 16.99501 14831 ft 244 kts 213°
2026-05-05 16:03 -1.97401 16.98597 14832 ft 244 kts 213°
2026-05-05 16:03 -1.98830 16.97680 14832 ft 244 kts 213°
2026-05-05 16:04 -2.00257 16.96764 14832 ft 244 kts 213°
2026-05-05 16:04 -2.01685 16.95847 14829 ft 244 kts 213°
2026-05-05 16:04 -2.03112 16.94930 14828 ft 244 kts 213°
2026-05-05 16:04 -2.04541 16.94015 14832 ft 244 kts 213°
2026-05-05 16:05 -2.05967 16.93098 14833 ft 244 kts 213°
2026-05-05 16:05 -2.07396 16.92181 14833 ft 244 kts 213°
2026-05-05 16:05 -2.08823 16.91265 14835 ft 244 kts 213°
2026-05-05 16:05 -2.10232 16.90360 14834 ft 244 kts 213°
2026-05-05 16:06 -2.11659 16.89444 14832 ft 244 kts 213°
2026-05-05 16:06 -2.13085 16.88528 14835 ft 244 kts 213°
2026-05-05 16:06 -2.14508 16.87614 14833 ft 244 kts 213°
2026-05-05 16:06 -2.15942 16.86694 14836 ft 244 kts 213°
2026-05-05 16:07 -2.17368 16.85778 14836 ft 244 kts 213°
2026-05-05 16:07 -2.18797 16.84861 14838 ft 244 kts 213°
2026-05-05 16:07 -2.20226 16.83943 14836 ft 244 kts 213°
2026-05-05 16:07 -2.21655 16.83026 14837 ft 244 kts 213°
2026-05-05 16:08 -2.23081 16.82110 14839 ft 244 kts 213°
2026-05-05 16:08 -2.24512 16.81192 14837 ft 245 kts 213°
2026-05-05 16:08 -2.25923 16.80284 14838 ft 244 kts 213°
2026-05-05 16:08 -2.27354 16.79367 14842 ft 244 kts 213°
2026-05-05 16:09 -2.28784 16.78447 14839 ft 244 kts 213°
2026-05-05 16:09 -2.30214 16.77529 14842 ft 244 kts 213°
2026-05-05 16:09 -2.31642 16.76613 14839 ft 244 kts 213°
2026-05-05 16:09 -2.33071 16.75694 14841 ft 244 kts 213°
2026-05-05 16:10 -2.34500 16.74775 14840 ft 244 kts 213°
2026-05-05 16:10 -2.35927 16.73856 14842 ft 244 kts 213°
2026-05-05 16:10 -2.37337 16.72951 14844 ft 244 kts 213°
2026-05-05 16:10 -2.38765 16.72033 14841 ft 244 kts 213°
2026-05-05 16:11 -2.40192 16.71115 14843 ft 244 kts 213°
2026-05-05 16:11 -2.44474 16.68361 14843 ft 244 kts 213°
2026-05-05 16:12 -2.45902 16.67442 14844 ft 244 kts 213°
2026-05-05 16:12 -2.48756 16.65607 14843 ft 244 kts 213°
2026-05-05 16:13 -2.53018 16.62866 14845 ft 244 kts 213°
2026-05-05 16:13 -2.54447 16.61947 14841 ft 244 kts 213°
2026-05-05 16:13 -2.55875 16.61028 14843 ft 244 kts 213°
2026-05-05 16:14 -2.58732 16.59190 14846 ft 244 kts 213°
2026-05-05 16:14 -2.61588 16.57354 14847 ft 244 kts 213°
2026-05-05 16:15 -2.64445 16.55515 14847 ft 244 kts 213°
2026-05-05 16:15 -2.67283 16.53689 14846 ft 244 kts 213°
2026-05-05 16:16 -2.70142 16.51850 14844 ft 244 kts 213°
2026-05-05 16:16 -2.73002 16.50010 14847 ft 245 kts 213°
2026-05-05 16:17 -2.75862 16.48169 14848 ft 245 kts 213°
2026-05-05 16:17 -2.77273 16.47262 14847 ft 244 kts 213°
2026-05-05 16:18 -2.80133 16.45421 14848 ft 244 kts 213°
2026-05-05 16:18 -2.81563 16.44501 14845 ft 244 kts 213°
2026-05-05 16:18 -2.84423 16.42661 14844 ft 244 kts 213°
2026-05-05 16:19 -2.85850 16.41741 14847 ft 244 kts 213°
2026-05-05 16:19 -2.87280 16.40822 14845 ft 244 kts 213°
2026-05-05 16:19 -2.90119 16.38994 14847 ft 244 kts 213°
2026-05-05 16:20 -2.92976 16.37155 14848 ft 244 kts 213°
2026-05-05 16:20 -2.95834 16.35316 14847 ft 244 kts 213°
2026-05-05 16:21 -2.98692 16.33476 14852 ft 244 kts 213°
2026-05-05 16:22 -3.02959 16.30728 14851 ft 244 kts 213°
2026-05-05 16:22 -3.05815 16.28889 14852 ft 244 kts 213°
2026-05-05 16:23 -3.08672 16.27050 14855 ft 244 kts 213°
2026-05-05 16:23 -3.10101 16.26129 14853 ft 244 kts 213°
2026-05-05 16:23 -3.12957 16.24289 14854 ft 244 kts 213°
2026-05-05 16:24 -3.14386 16.23370 14852 ft 244 kts 213°
2026-05-05 16:24 -3.15814 16.22450 14849 ft 244 kts 213°
2026-05-05 16:24 -3.18652 16.20623 14849 ft 244 kts 213°
2026-05-05 16:25 -3.20081 16.19701 14851 ft 244 kts 213°
2026-05-05 16:25 -3.22939 16.17861 14851 ft 244 kts 213°
2026-05-05 16:25 -3.24367 16.16941 14852 ft 244 kts 212°
2026-05-05 16:26 -3.27223 16.15101 14856 ft 244 kts 212°
2026-05-05 16:26 -3.30062 16.13272 14857 ft 244 kts 212°
2026-05-05 16:27 -3.31491 16.12351 14857 ft 244 kts 212°
2026-05-05 16:27 -3.32920 16.11429 14857 ft 244 kts 213°
2026-05-05 16:27 -3.34346 16.10507 14856 ft 244 kts 212°
2026-05-05 16:27 -3.35774 16.09585 14855 ft 244 kts 212°
2026-05-05 16:28 -3.37201 16.08664 14855 ft 244 kts 212°
2026-05-05 16:28 -3.38627 16.07742 14858 ft 244 kts 212°
2026-05-05 16:28 -3.40035 16.06833 14858 ft 244 kts 212°
2026-05-05 16:28 -3.41461 16.05913 14858 ft 244 kts 212°
2026-05-05 16:29 -3.42886 16.04992 14858 ft 244 kts 212°
2026-05-05 16:29 -3.44311 16.04073 14856 ft 244 kts 212°
2026-05-05 16:29 -3.45737 16.03151 14860 ft 244 kts 212°
2026-05-05 16:29 -3.47163 16.02230 14859 ft 244 kts 212°
2026-05-05 16:30 -3.48587 16.01310 14859 ft 244 kts 212°
2026-05-05 16:30 -3.50014 16.00389 14860 ft 244 kts 212°
2026-05-05 16:30 -3.51437 15.99468 14862 ft 244 kts 212°
2026-05-05 16:30 -3.52845 15.98559 14860 ft 244 kts 212°
2026-05-05 16:31 -3.54269 15.97640 14864 ft 244 kts 212°
2026-05-05 16:31 -3.55695 15.96718 14863 ft 244 kts 212°
2026-05-05 16:31 -3.57119 15.95798 14863 ft 244 kts 212°
2026-05-05 16:31 -3.58545 15.94877 14864 ft 244 kts 212°
2026-05-05 16:32 -3.59969 15.93956 14863 ft 244 kts 212°
2026-05-05 16:32 -3.61394 15.93035 14864 ft 244 kts 212°
2026-05-05 16:32 -3.62820 15.92114 14862 ft 244 kts 212°
2026-05-05 16:32 -3.64244 15.91194 14863 ft 244 kts 212°
2026-05-05 16:33 -3.65650 15.90286 14862 ft 244 kts 212°
2026-05-05 16:33 -3.67074 15.89365 14863 ft 244 kts 212°
2026-05-05 16:33 -3.68501 15.88443 14867 ft 244 kts 212°
2026-05-05 16:33 -3.69926 15.87523 14866 ft 244 kts 212°
2026-05-05 16:34 -3.71351 15.86601 14866 ft 244 kts 212°
2026-05-05 16:34 -3.72775 15.85681 14868 ft 243 kts 212°
2026-05-05 16:34 -3.74196 15.84762 14868 ft 243 kts 212°
2026-05-05 16:34 -3.75619 15.83842 14867 ft 244 kts 212°
2026-05-05 16:35 -3.77043 15.82922 14869 ft 244 kts 212°
2026-05-05 16:35 -3.78448 15.82014 14867 ft 244 kts 212°
2026-05-05 16:35 -3.79871 15.81094 14870 ft 244 kts 212°
2026-05-05 16:35 -3.81294 15.80174 14869 ft 244 kts 212°
2026-05-05 16:36 -3.82726 15.79248 14708 ft 248 kts 212°
2026-05-05 16:36 -3.84197 15.78298 14386 ft 255 kts 212°
2026-05-05 16:36 -3.85714 15.77357 14083 ft 258 kts 206°
2026-05-05 16:36 -3.87394 15.76715 13792 ft 260 kts 196°
2026-05-05 16:37 -3.89152 15.76179 13206 ft 271 kts 197°
2026-05-05 16:37 -3.90959 15.75519 12521 ft 282 kts 201°
2026-05-05 16:37 -3.92778 15.74784 11875 ft 289 kts 201°
2026-05-05 16:37 -3.94671 15.74050 11233 ft 294 kts 200°
2026-05-05 16:38 -3.96604 15.73328 10622 ft 298 kts 199°
2026-05-05 16:38 -3.98552 15.72592 10015 ft 301 kts 200°
2026-05-05 16:38 -4.00511 15.71840 9385 ft 302 kts 200°
2026-05-05 16:38 -4.02479 15.71087 8738 ft 303 kts 200°
2026-05-05 16:39 -4.04448 15.70337 8103 ft 303 kts 200°
2026-05-05 16:39 -4.06415 15.69591 7498 ft 302 kts 200°
2026-05-05 16:39 -4.08350 15.68853 6908 ft 301 kts 200°
2026-05-05 16:39 -4.10303 15.68106 6317 ft 300 kts 199°
2026-05-05 16:40 -4.12251 15.67365 5719 ft 299 kts 200°
2026-05-05 16:40 -4.14190 15.66626 5126 ft 297 kts 200°
2026-05-05 16:40 -4.16118 15.65891 4537 ft 296 kts 200°
2026-05-05 16:40 -4.18035 15.65161 3941 ft 294 kts 201°
2026-05-05 16:41 -4.19937 15.64435 3372 ft 291 kts 201°
2026-05-05 16:41 -4.21806 15.63723 2813 ft 284 kts 201°
2026-05-05 16:41 -4.23618 15.63031 2476 ft 270 kts 201°
2026-05-05 16:41 -4.25289 15.62394 2640 ft 238 kts 201°
2026-05-05 16:42 -4.26714 15.61848 2894 ft 208 kts 202°
2026-05-05 16:42 -4.27851 15.61094 2984 ft 188 kts 226°
2026-05-05 16:42 -4.28597 15.60068 3060 ft 178 kts 240°
2026-05-05 16:42 -4.29223 15.59017 3124 ft 174 kts 237°
2026-05-05 16:43 -4.29875 15.58008 3173 ft 171 kts 237°
2026-05-05 16:43 -4.30506 15.57005 3216 ft 170 kts 236°
2026-05-05 16:43 -4.31151 15.56021 3255 ft 167 kts 237°
2026-05-05 16:43 -4.31766 15.55038 3085 ft 166 kts 237°
2026-05-05 16:44 -4.32400 15.54073 2845 ft 165 kts 236°
2026-05-05 16:44 -4.33001 15.53116 2649 ft 164 kts 237°
2026-05-05 16:44 -4.33616 15.52173 2460 ft 158 kts 236°
2026-05-05 16:44 -4.34191 15.51264 2260 ft 151 kts 237°
2026-05-05 16:45 -4.34753 15.50397 2067 ft 146 kts 236°
2026-05-05 16:45 -4.35273 15.49580 1903 ft 132 kts 239°
2026-05-05 16:45 -4.35748 15.48836 1772 ft 122 kts 238°
2026-05-05 16:45 -4.36187 15.48138 1697 ft 117 kts 238°
2026-05-05 16:46 -4.36630 15.47448 1581 ft 118 kts 239°
2026-05-05 16:46 -4.37085 15.46771 1433 ft 116 kts 237°
2026-05-05 16:46 -4.37508 15.46098 1272 ft 116 kts 238°
2026-05-05 16:46 -4.37948 15.45422 1101 ft 115 kts 239°
2026-05-05 16:47 -4.38366 15.44775 1015 ft 100 kts 239°
2026-05-05 16:47 -4.38682 15.44285 1012 ft 57 kts 237°
2026-05-05 16:47 -4.38798 15.44113 1009 ft 17 kts 226°
2026-05-05 16:47 -4.38871 15.44105 1009 ft 9 kts 147°
2026-05-05 16:48 -4.38924 15.44142 1010 ft 10 kts 141°
2026-05-05 16:48 -4.38962 15.44193 1010 ft 7 kts 84°
2026-05-05 16:48 -4.38939 15.44237 1010 ft 8 kts 57°
2026-05-05 16:48 -4.38902 15.44294 1010 ft 12 kts 56°
2026-05-05 16:49 -4.38850 15.44373 1011 ft 13 kts 60°
2026-05-05 16:49 -4.38833 15.44451 1011 ft 10 kts 89°
2026-05-05 16:49 -4.38847 15.44509 1010 ft 6 kts 140°
2026-05-05 16:49 -4.38872 15.44508 1010 ft 5 kts 195°
2026-05-05 16:50 -4.38899 15.44499 1010 ft 1 kts 198°
2026-05-05 16:50 -4.38900 15.44499 1010 ft 0 kts 198°
2026-05-05 16:59 -4.38900 15.44500 1010 ft 0 kts 198°
2026-05-05 17:02 -4.38899 15.44500 1010 ft 0 kts 198°